STARLINK-2545, 48289

Orbit data source: Space-Track

STARLINK-2545, 48289 is a payload satellite owned by SpaceX/Seattle (US) in LEO that was launched on Thu, 29 Apr 2021 UTC via an FALCON 9 launch vehicle from the Air Force Eastern Test Range (AFETR). Payload-class satellites include a variety of spacecraft equipped with specific instruments for various scientific and technological missions. These include communications satellites like Starlink; space stations such as the ISS; scientific satellites like the Hubble; Earth observation satellites from companies like Planet Labs, Umbra, and HawkEye 360; GPS; miniature CubeSats for education and research; and military/defense satellites.

Loading next visibility...
Identifier
48289, 2021-036P
Orbit
LEO
Country
Flag of USUS
Related business
Manufacturer
SpaceX/Seattle
Mission
Operational Commercial Communications
Bus & Motor
STARLINK, Unknown motor
Mass
260 kg wet, ~248 kg dry
Launch date (UTC)
2021-04-29 (4 years ago)
Launch vehicle
FALCON 9
Launch site
Air Force Eastern Test Range (AFETR)
Object type
Payload
Rocket body
Debris
Shape & HBR
Box + 1 Pan, 10.1 m
Radar Cross Section
13.562 m², Large (>1 m²)

Expand to show TLE details & history
Last TLE update: 19 hours ago

TLE from 19 hours ago
0 STARLINK-2545
1 48289U 21036P   25294.44693030  .00028808  00000-0  19438-2 0  9997
2 48289  53.0562 346.7135 0001483  98.8435 261.2722 15.06422439247322
Epoch: 2025-10-21T10:43Z
TLE epoch observation values (Epoch: 2025-10-21T10:43:34.777Z)
Latitude
-0.00004°
Longitude
155.6838°
Altitude
548.178 km
Speed
7.589 km/s
True Right ascension
23h 06m 51s
True Declination
0° 00' 00"
Sunlit
Object was in full shadow at epoch
Visualization orbit readout
Latitude
Unknown
Longitude
Unknown
Altitude
Unknown
Speed
Unknown
Apparent Right ascension
Unknown
Apparent Declination
Unknown
Sunlit
N/A
Visualization observer readout
Local Sidereal Time
01:15:51
Azimuth
Unknown
Elevation
Unknown
Doppler factor
Unknown
Orbital elements
Apogee altitude
548.44 km
Perigee altitude
546.386 km
Semi-major axis
6,925.55 km
Eccentricity
0.00015
Inclination
53.0562°
RAAN
346.7135°
Arg. of periapsis
98.8435°
True anomaly
261.2554°
Mean anomaly
261.2722°
Eccentric anomaly
261.2638°
Mean motion
3.76584 °/min
Orbital period
95.6 mins
BSTAR
0.0019438
Loading maneuver chart data...
Computing Atmospheric mass density...
Loading historical data...
Loading historical data...
Loading historical data...
Loading historical data...
Loading historical data...
Loading historical data...
Loading historical data...

Documentation

Showing up to 5 results
|